Weather in Akhiny

Russia / Irkutsk Oblast     53°15′36″N   104°58′39″E
temp.,
°C
wind,
m/s
gust,
m/s
humid.,
%
clouds,
%
prec.,
mm/h
press.,
hPa
HPBL,
m
13 may, thu
thu1323:00+2nnw225461 0.0 101431
02:00−1n22675 0.0 101516
05:00−2n11717 0.0 101612
08:00+3nnw354594 0.0 10151452
11:00+6nnw4527100 0.0 10142809
14:00+7n4428100 0.0 10142702
17:00+7nnw4524100 0.0 10152838
20:00+5n58435 0.0 1016822
14 may, fri
fri1423:000nnw23735 0.0 102047
02:00−2nw22855 0.0 102124
05:00−2nnw22865 0.0 102126
08:00+5nnw24520 0.0 1019506
11:00+10nw12325 0.0 10171678
14:00+13wsw12255 0.0 10142288
17:00+13sw32245 0.0 10132506
20:00+10ssw36390 0.0 1014189
15 may, sat
sat1523:00+5s11500 0.0 101510
02:00+3se115316 0.0 101510
05:00+2sse11535 0.0 101510
08:00+6nnw61256100 0.0 1017814
11:00+9nw6936100 0.0 10181309
14:00+10wnw6931100 0.0 10171727
17:00+11wnw61031100 0.0 10151964
20:00+9wnw494696 0.0 10151142
16 may, sun
sun1623:00+7w51382100 0.4 10161281
02:00+8w51384100 0.5 10141173
05:00+7sw3128872 0.0 1013530
08:00+8w41267100 0.1 10121265
11:00+7w51291100 1.1 10131304
14:00+8wnw51091100 1.1 1012938
17:00+8wnw41089100 0.2 10121076
20:00+8wnw31288100 0.3 10121167
17 may, mon
mon1723:00+8wnw41192100 1.4 10111026
02:00+7w2699100 3.6 1009344
05:00+6wsw1299100 4.8 1008102
08:00+7wnw2696100 6.2 1009659
11:00+8w3689100 0.2 1009700
14:00+10wsw4778100 0.3 1008950
17:00+11w51277100 0.4 10051030
20:00+9sw31194100 0.7 1003696